Flag Weather past 2 weeks in Bruchsal, Baden-Württemberg, Germany

Now
39 °F

Fog.


Feels Like: 39 °F
Forecast: 37 / 44 °F
Wind: 2 mph from North

Location: Baden Wurttemberg - Neuostheim

Current Time: Nov 24, 2014 at 8:08:30 AM

Latest Report: Nov 24, 2014 at 7:20 AM


Visibility: 3 mi

Pressure: 30.15 "Hg

Humidity: 100%

Dew point: 39 °F

Location of BruchsalLocation

Historic Weather in Bruchsal — Graph

°F

Bruchsal temperature yesterday

Maximum temperature yesterday: 43 °F (at 1:50 PM)
Minimum temperature yesterday: 39 °F (at 7:50 AM)
Average temperature yesterday: 41 °F

Past Weeks' High & Low Weather Summary

 TemperatureHumidityPressure
High55 °F (Nov 14, 11:50 AM)100% (Nov 9, 6:20 AM)30.33 "Hg (Nov 9, 6:20 AM)
Low32 °F (Nov 21, 6:50 AM)66% (Nov 21, 11:50 AM)29.59 "Hg (Nov 15, 4:50 PM)
Average48 °F89%29.90 "Hg
* Reported Nov 9 6:20 AM — Nov 24 6:50 AM, Bruchsal, Weather by CustomWeather, © 2014

Note: Actual official high and low records may vary slightly from our data, if they occured in-between our weather recording intervals... More about our weather records

Advertising

Bruchsal weather history for previous 24 hours

 ConditionsComfort  
Time TempWeatherWind HumidityBarometerVisibility
6:50 AM
Nov 24
41 °FFog.2 mph100%30.15 "Hg3 mi
6:20 AM39 °FFog.3 mph100%30.12 "Hg3 mi
5:50 AM39 °FFog.2 mph100%30.12 "Hg3 mi
5:20 PM
Nov 23
43 °FFog.2 mph93%30.12 "Hg0 mi
4:20 PM43 °FFog.3 mph100%30.12 "Hg1 mi
3:50 PM43 °FFog.2 mph100%30.12 "Hg1 mi
3:20 PM43 °FFog.3 mph100%30.12 "Hg1 mi
2:50 PM43 °FFog.3 mph100%30.15 "Hg1 mi
2:20 PM43 °FFog.2 mph100%30.15 "Hg2 mi
1:50 PM43 °FFog.3 mph100%30.15 "Hg2 mi
1:20 PM41 °FFog.3 mph100%30.18 "Hg1 mi
12:50 PM41 °FFog.3 mph100%30.18 "Hg1 mi
12:20 PM41 °FFog.2 mph100%30.18 "Hg1 mi
11:50 AM41 °FFog.2 mph100%30.18 "Hg1 mi
11:20 AM41 °FFog.2 mph100%30.21 "Hg1 mi
10:50 AM39 °FFog.1 mph100%30.21 "Hg1 mi
10:20 AM39 °FSnow. Cloudy.1 mph100%30.21 "Hg1 mi
9:50 AM39 °FFog.1 mph100%30.21 "Hg1 mi
9:20 AM39 °FFog.2 mph100%30.21 "Hg1 mi
8:50 AM39 °FFog.1 mph100%30.21 "Hg1 mi
8:20 AM39 °FFog.1 mph100%30.21 "Hg0 mi
Weather by CustomWeather, © 2014

See weather overviewHow to use our weather pages